Time,TemperatureF,DewpointF,PressureIn,WindDirection,WindDirectionDegrees,WindSpeedMPH,WindSpeedGustMPH,Humidity,HourlyPrecipIn,Conditions,Clouds,dailyrainin,SoftwareType,DateUTC
2013-02-23 00:07:00,33.1,29.4,29.71,SSW,202,6.8,-999.0,86,-99.99,,,0.00,Acu-Link.com,2013-02-23 05:07:00,
2013-02-23 00:22:00,33.1,29.1,29.70,SSW,202,7.8,-999.0,85,-99.99,,,0.00,Acu-Link.com,2013-02-23 05:22:00,
2013-02-23 00:37:00,32.9,28.9,29.70,SSW,202,6.3,-999.0,85,-99.99,,,0.00,Acu-Link.com,2013-02-23 05:37:00,
2013-02-23 00:52:00,32.7,28.4,29.70,SSW,202,7.3,-999.0,84,-99.99,,,0.00,Acu-Link.com,2013-02-23 05:52:00,
2013-02-23 01:08:00,32.5,28.2,29.70,SSW,202,4.7,-999.0,84,-99.99,,,0.00,Acu-Link.com,2013-02-23 06:08:00,
2013-02-23 01:23:00,32.5,28.2,29.70,SW,225,5.8,-999.0,84,-99.99,,,0.00,Acu-Link.com,2013-02-23 06:23:00,
2013-02-23 01:38:00,32.5,28.2,29.70,South,180,3.7,-999.0,84,-99.99,,,0.00,Acu-Link.com,2013-02-23 06:38:00,
2013-02-23 01:53:00,32.4,27.8,29.69,SSW,202,7.3,-999.0,83,-99.99,,,0.00,Acu-Link.com,2013-02-23 06:53:00,
2013-02-23 02:08:00,32.4,27.8,29.69,SSW,202,4.7,-999.0,83,-99.99,,,0.00,Acu-Link.com,2013-02-23 07:08:00,
2013-02-23 02:24:00,32.4,27.8,29.70,SSW,202,4.7,-999.0,83,-99.99,,,0.00,Acu-Link.com,2013-02-23 07:24:00,
2013-02-23 02:39:00,32.4,27.8,29.69,SSW,202,4.2,-999.0,83,-99.99,,,0.00,Acu-Link.com,2013-02-23 07:39:00,
2013-02-23 02:55:00,32.0,27.4,29.69,SSW,202,4.2,-999.0,83,-99.99,,,0.00,Acu-Link.com,2013-02-23 07:55:00,
2013-02-23 03:10:00,32.0,27.4,29.69,SW,225,4.7,-999.0,83,-99.99,,,0.00,Acu-Link.com,2013-02-23 08:10:00,
2013-02-23 03:25:00,32.0,27.4,29.69,SSW,202,3.2,-999.0,83,-99.99,,,0.00,Acu-Link.com,2013-02-23 08:25:00,
2013-02-23 03:40:00,32.0,27.4,29.69,SW,225,4.2,-999.0,83,-99.99,,,0.00,Acu-Link.com,2013-02-23 08:40:00,
2013-02-23 03:56:00,31.8,26.6,29.68,SW,225,3.7,-999.0,81,-99.99,,,0.00,Acu-Link.com,2013-02-23 08:56:00,
2013-02-23 04:21:00,31.8,26.3,29.67,SSW,202,5.3,-999.0,80,-99.99,,,0.00,Acu-Link.com,2013-02-23 09:21:00,
2013-02-23 04:36:00,31.8,24.8,29.67,SW,225,5.8,-999.0,75,-99.99,,,0.00,Acu-Link.com,2013-02-23 09:36:00,
2013-02-23 04:51:00,31.8,24.2,29.68,SSW,202,5.3,-999.0,73,-99.99,,,0.00,Acu-Link.com,2013-02-23 09:51:00,
2013-02-23 05:06:00,31.5,24.2,29.68,WSW,247,8.9,-999.0,74,-99.99,,,0.00,Acu-Link.com,2013-02-23 10:06:00,
2013-02-23 05:21:00,31.1,23.5,29.68,SW,225,7.3,-999.0,73,-99.99,,,0.00,Acu-Link.com,2013-02-23 10:21:00,
2013-02-23 05:36:00,30.7,23.4,29.69,SW,225,4.2,-999.0,74,-99.99,,,0.00,Acu-Link.com,2013-02-23 10:36:00,
2013-02-23 05:51:00,30.2,21.9,29.69,WSW,247,7.8,-999.0,71,-99.99,,,0.00,Acu-Link.com,2013-02-23 10:51:00,
2013-02-23 06:07:00,30.0,21.1,29.69,SSW,202,4.7,-999.0,69,-99.99,,,0.00,Acu-Link.com,2013-02-23 11:07:00,
2013-02-23 06:22:00,29.7,20.1,29.69,SW,225,3.7,-999.0,67,-99.99,,,0.00,Acu-Link.com,2013-02-23 11:22:00,
2013-02-23 06:37:00,29.5,19.9,29.70,SW,225,5.3,-999.0,67,-99.99,,,0.00,Acu-Link.com,2013-02-23 11:37:00,
2013-02-23 06:52:00,29.3,19.7,29.70,SSW,202,5.3,-999.0,67,-99.99,,,0.00,Acu-Link.com,2013-02-23 11:52:00,
2013-02-23 07:07:00,29.1,19.5,29.70,West,270,4.2,-999.0,67,-99.99,,,0.00,Acu-Link.com,2013-02-23 12:07:00,
2013-02-23 07:23:00,29.1,19.2,29.71,SSW,202,6.8,-999.0,66,-99.99,,,0.00,Acu-Link.com,2013-02-23 12:23:00,
2013-02-23 07:38:00,29.1,19.5,29.71,SSW,202,6.3,-999.0,67,-99.99,,,0.00,Acu-Link.com,2013-02-23 12:38:00,
2013-02-23 07:53:00,29.1,19.5,29.72,SSW,202,6.8,-999.0,67,-99.99,,,0.00,Acu-Link.com,2013-02-23 12:53:00,
2013-02-23 08:08:00,29.1,19.5,29.71,SW,225,4.7,-999.0,67,-99.99,,,0.00,Acu-Link.com,2013-02-23 13:08:00,
2013-02-23 08:23:00,29.1,19.5,29.71,SSW,202,4.2,-999.0,67,-99.99,,,0.00,Acu-Link.com,2013-02-23 13:23:00,
2013-02-23 08:39:00,29.3,19.7,29.71,SSW,202,6.3,-999.0,67,-99.99,,,0.00,Acu-Link.com,2013-02-23 13:39:00,
2013-02-23 08:54:00,29.3,19.4,29.70,WNW,292,10.4,-999.0,66,-99.99,,,0.00,Acu-Link.com,2013-02-23 13:54:00,
2013-02-23 09:09:00,30.2,19.9,29.71,SW,225,6.8,-999.0,65,-99.99,,,0.00,Acu-Link.com,2013-02-23 14:09:00,
2013-02-23 09:24:00,30.6,20.3,29.70,SW,225,7.3,-999.0,65,-99.99,,,0.00,Acu-Link.com,2013-02-23 14:24:00,
2013-02-23 09:39:00,31.3,20.6,29.71,WNW,292,5.3,-999.0,64,-99.99,,,0.00,Acu-Link.com,2013-02-23 14:39:00,
2013-02-23 09:54:00,31.8,20.7,29.70,SW,225,5.8,-999.0,63,-99.99,,,0.00,Acu-Link.com,2013-02-23 14:54:00,
2013-02-23 10:10:00,32.0,20.9,29.70,SW,225,6.3,-999.0,63,-99.99,,,0.00,Acu-Link.com,2013-02-23 15:10:00,
2013-02-23 10:25:00,31.6,20.8,29.69,SW,225,6.3,-999.0,64,-99.99,,,0.00,Acu-Link.com,2013-02-23 15:25:00,
2013-02-23 10:40:00,32.5,21.7,29.70,South,180,4.2,-999.0,64,-99.99,,,0.00,Acu-Link.com,2013-02-23 15:40:00,
2013-02-23 10:55:00,32.4,21.6,29.69,SSW,202,6.8,-999.0,64,-99.99,,,0.00,Acu-Link.com,2013-02-23 15:55:00,
2013-02-23 11:10:00,32.0,21.6,29.70,South,180,2.7,-999.0,65,-99.99,,,0.00,Acu-Link.com,2013-02-23 16:10:00,
2013-02-23 11:25:00,32.2,21.4,29.69,SW,225,4.2,-999.0,64,-99.99,,,0.00,Acu-Link.com,2013-02-23 16:25:00,
2013-02-23 11:40:00,32.2,21.4,29.69,SW,225,5.3,-999.0,64,-99.99,,,0.00,Acu-Link.com,2013-02-23 16:40:00,
2013-02-23 11:56:00,33.1,21.5,29.69,SSW,202,5.8,-999.0,62,-99.99,,,0.00,Acu-Link.com,2013-02-23 16:56:00,
2013-02-23 12:11:00,32.9,20.6,29.69,SSW,202,7.8,-999.0,60,-99.99,,,0.00,Acu-Link.com,2013-02-23 17:11:00,
2013-02-23 12:26:00,33.3,21.3,29.69,SSW,202,6.8,-999.0,61,-99.99,,,0.00,Acu-Link.com,2013-02-23 17:26:00,
2013-02-23 12:42:00,34.0,20.4,29.69,WSW,247,4.7,-999.0,57,-99.99,,,0.00,Acu-Link.com,2013-02-23 17:42:00,
2013-02-23 12:57:00,34.2,20.2,29.69,SW,225,4.7,-999.0,56,-99.99,,,0.00,Acu-Link.com,2013-02-23 17:57:00,
2013-02-23 13:12:00,33.3,20.1,29.69,SW,225,6.3,-999.0,58,-99.99,,,0.00,Acu-Link.com,2013-02-23 18:12:00,
2013-02-23 13:27:00,33.1,20.0,29.69,SSW,202,6.3,-999.0,58,-99.99,,,0.00,Acu-Link.com,2013-02-23 18:27:00,
2013-02-23 13:43:00,33.8,19.8,29.68,SSW,202,4.7,-999.0,56,-99.99,,,0.00,Acu-Link.com,2013-02-23 18:43:00,
2013-02-23 13:58:00,33.8,19.8,29.67,SSW,202,2.7,-999.0,56,-99.99,,,0.00,Acu-Link.com,2013-02-23 18:58:00,
2013-02-23 14:13:00,34.3,19.8,29.67,NNW,337,1.7,-999.0,55,-99.99,,,0.00,Acu-Link.com,2013-02-23 19:13:00,
2013-02-23 14:29:00,34.7,19.3,29.67,WSW,247,2.7,-999.0,53,-99.99,,,0.00,Acu-Link.com,2013-02-23 19:29:00,
2013-02-23 14:44:00,33.3,18.9,29.68,SW,225,5.8,-999.0,55,-99.99,,,0.00,Acu-Link.com,2013-02-23 19:44:00,
2013-02-23 14:59:00,33.1,18.7,29.67,SSW,202,4.7,-999.0,55,-99.99,,,0.00,Acu-Link.com,2013-02-23 19:59:00,
2013-02-23 15:14:00,32.7,19.6,29.68,West,270,2.7,-999.0,58,-99.99,,,0.00,Acu-Link.com,2013-02-23 20:14:00,
2013-02-23 15:30:00,32.7,18.8,29.67,SSW,202,5.3,-999.0,56,-99.99,,,0.00,Acu-Link.com,2013-02-23 20:30:00,
2013-02-23 15:45:00,32.4,18.5,29.67,SW,225,5.8,-999.0,56,-99.99,,,0.00,Acu-Link.com,2013-02-23 20:45:00,
2013-02-23 16:00:00,32.4,18.1,29.67,SSW,202,3.7,-999.0,55,-99.99,,,0.00,Acu-Link.com,2013-02-23 21:00:00,
2013-02-23 16:15:00,32.7,17.9,29.67,SW,225,2.7,-999.0,54,-99.99,,,0.00,Acu-Link.com,2013-02-23 21:15:00,
2013-02-23 16:31:00,32.2,18.7,29.67,West,270,4.2,-999.0,57,-99.99,,,0.00,Acu-Link.com,2013-02-23 21:31:00,
2013-02-23 16:46:00,32.2,18.7,29.67,SW,225,1.7,-999.0,57,-99.99,,,0.00,Acu-Link.com,2013-02-23 21:46:00,
2013-02-23 17:01:00,32.0,18.5,29.68,SW,225,2.7,-999.0,57,-99.99,,,0.00,Acu-Link.com,2013-02-23 22:01:00,
2013-02-23 17:17:00,31.3,18.7,29.68,ESE,112,1.7,-999.0,59,-99.99,,,0.00,Acu-Link.com,2013-02-23 22:17:00,
2013-02-23 17:32:00,30.9,18.3,29.68,SW,225,4.7,-999.0,59,-99.99,,,0.00,Acu-Link.com,2013-02-23 22:32:00,
2013-02-23 17:47:00,30.7,18.5,29.69,SW,225,2.2,-999.0,60,-99.99,,,0.00,Acu-Link.com,2013-02-23 22:47:00,
2013-02-23 18:03:00,30.4,18.6,29.69,SSW,202,2.7,-999.0,61,-99.99,,,0.00,Acu-Link.com,2013-02-23 23:03:00,
2013-02-23 18:18:00,30.2,17.6,29.69,WSW,247,4.7,-999.0,59,-99.99,,,0.00,Acu-Link.com,2013-02-23 23:18:00,
2013-02-23 18:33:00,30.0,18.2,29.70,SW,225,4.2,-999.0,61,-99.99,,,0.00,Acu-Link.com,2013-02-23 23:33:00,
2013-02-23 18:49:00,29.8,18.4,29.71,SW,225,2.2,-999.0,62,-99.99,,,0.00,Acu-Link.com,2013-02-23 23:49:00,
2013-02-23 19:04:00,29.8,18.0,29.71,South,180,2.2,-999.0,61,-99.99,,,0.00,Acu-Link.com,2013-02-24 00:04:00,
2013-02-23 19:19:00,29.7,18.3,29.71,SSW,202,3.2,-999.0,62,-99.99,,,0.00,Acu-Link.com,2013-02-24 00:19:00,
2013-02-23 19:34:00,29.5,18.1,29.71,WSW,247,2.7,-999.0,62,-99.99,,,0.00,Acu-Link.com,2013-02-24 00:34:00,
2013-02-23 19:50:00,29.3,18.3,29.71,SW,225,2.7,-999.0,63,-99.99,,,0.00,Acu-Link.com,2013-02-24 00:50:00,
2013-02-23 20:05:00,29.1,18.5,29.71,SSE,157,2.7,-999.0,64,-99.99,,,0.00,Acu-Link.com,2013-02-24 01:05:00,
2013-02-23 20:20:00,28.8,18.5,29.71,WSW,247,4.7,-999.0,65,-99.99,,,0.00,Acu-Link.com,2013-02-24 01:20:00,
2013-02-23 20:36:00,28.2,20.0,29.71,ESE,112,0.0,-999.0,71,-99.99,,,0.00,Acu-Link.com,2013-02-24 01:36:00,
2013-02-23 20:51:00,27.7,19.9,29.71,SSW,202,3.2,-999.0,72,-99.99,,,0.00,Acu-Link.com,2013-02-24 01:51:00,
2013-02-23 21:06:00,27.5,20.3,29.71,WSW,247,2.2,-999.0,74,-99.99,,,0.00,Acu-Link.com,2013-02-24 02:06:00,
2013-02-23 21:22:00,27.3,20.1,29.71,SW,225,1.7,-999.0,74,-99.99,,,0.00,Acu-Link.com,2013-02-24 02:22:00,
2013-02-23 21:37:00,27.0,20.5,29.71,SW,225,1.7,-999.0,76,-99.99,,,0.00,Acu-Link.com,2013-02-24 02:37:00,
2013-02-23 21:52:00,27.0,20.2,29.71,WNW,292,3.7,-999.0,75,-99.99,,,0.00,Acu-Link.com,2013-02-24 02:52:00,
2013-02-23 22:07:00,26.8,20.0,29.71,West,270,2.7,-999.0,75,-99.99,,,0.00,Acu-Link.com,2013-02-24 03:07:00,
2013-02-23 22:22:00,26.6,19.5,29.71,West,270,4.2,-999.0,74,-99.99,,,0.00,Acu-Link.com,2013-02-24 03:22:00,
2013-02-23 22:38:00,26.4,18.6,29.71,WSW,247,2.2,-999.0,72,-99.99,,,0.00,Acu-Link.com,2013-02-24 03:38:00,
2013-02-23 22:53:00,26.2,18.7,29.70,SSW,202,2.7,-999.0,73,-99.99,,,0.00,Acu-Link.com,2013-02-24 03:53:00,
2013-02-23 23:08:00,26.1,19.0,29.70,SW,225,0.0,-999.0,74,-99.99,,,0.00,Acu-Link.com,2013-02-24 04:08:00,
2013-02-23 23:23:00,25.9,19.1,29.70,SSW,202,4.2,-999.0,75,-99.99,,,0.00,Acu-Link.com,2013-02-24 04:23:00,
2013-02-23 23:39:00,25.9,19.1,29.70,West,270,1.7,-999.0,75,-99.99,,,0.00,Acu-Link.com,2013-02-24 04:39:00,
2013-02-23 23:54:00,25.9,19.1,29.70,SW,225,1.7,-999.0,75,-99.99,,,0.00,Acu-Link.com,2013-02-24 04:54:00,